When you browse on this site, cookies collect data to enhance your experience and personalize the content and advertising you see.
Visit our Privacy Policy to learn more. By continuing to use the site, you agree to this use of cookies and data.
  • In France
  • List of Countries
  • For 7 days
  • Water Temperature
  • Satellite Maps
  • Weather Map
  • Weather Widgets
  • user-avatar
    Login

    Hourly Weather Korçe

    Today, 24 January, Thursday

    Time Temperature Precipitation Wind Pressure Humidity
    00:00 +2°C° 2.3 mm 2 mps 649 mmHg 97%
    01:00 +1°C° 2.3 mm 2 mps 649 mmHg 98%
    02:00 +1°C° 0.8 mm 2 mps 649 mmHg 97%
    03:00 -1°C° 0.8 mm 2 mps 648 mmHg 97%
    04:00 -1°C° 0.8 mm 2 mps 648 mmHg 96%
    05:00 -2°C° 0 mm 2 mps 648 mmHg 96%
    06:00 -2°C° 0 mm 2 mps 648 mmHg 96%
    07:00 -3°C° 0 mm 2 mps 648 mmHg 96%
    08:00 -2°C° 0 mm 2 mps 649 mmHg 92%
    09:00 -1°C° 0 mm 2 mps 649 mmHg 87%
    10:00 +1°C° 0 mm 2 mps 650 mmHg 82%
    11:00 +2°C° 0 mm 2 mps 650 mmHg 82%
    12:00 +3°C° 0 mm 2 mps 650 mmHg 82%
    13:00 +3°C° 0 mm 2 mps 650 mmHg 82%
    14:00 +3°C° 0 mm 2 mps 650 mmHg 82%
    15:00 +3°C° 0 mm 2 mps 650 mmHg 82%
    16:00 +2°C° 0 mm 2 mps 649 mmHg 82%
    17:00 +1°C° 0 mm 2 mps 649 mmHg 84%
    18:00 -1°C° 0 mm 2 mps 649 mmHg 85%
    19:00 -1°C° 0 mm 3 mps 648 mmHg 86%
    20:00 -1°C° 0.5 mm 3 mps 649 mmHg 87%
    21:00 -1°C° 0.5 mm 3 mps 649 mmHg 88%
    22:00 -2°C° 0.5 mm 4 mps 650 mmHg 88%
    23:00 -1°C° 0.6 mm 3 mps 650 mmHg 90%

    Tomorrow, 25 January, Friday

    Time Temperature Precipitation Wind Pressure Humidity
    00:00 -1°C° 0.6 mm 3 mps 650 mmHg 91%
    01:00 -1°C° 0.6 mm 2 mps 650 mmHg 93%
    02:00 -1°C° 0.1 mm 2 mps 649 mmHg 93%
    03:00 -2°C° 0.1 mm 2 mps 649 mmHg 92%
    04:00 -2°C° 0.1 mm 2 mps 649 mmHg 91%
    05:00 -2°C° 0.1 mm 2 mps 648 mmHg 91%
    06:00 -2°C° 0.1 mm 2 mps 648 mmHg 91%
    07:00 -2°C° 0.1 mm 2 mps 648 mmHg 90%
    08:00 -1°C° 0.5 mm 2 mps 648 mmHg 90%
    09:00 0°C° 0.5 mm 3 mps 648 mmHg 90%
    10:00 0°C° 0.5 mm 3 mps 647 mmHg 90%
    11:00 +2°C° 0.2 mm 2 mps 647 mmHg 89%
    12:00 +2°C° 0.2 mm 2 mps 647 mmHg 88%
    13:00 +2°C° 0.2 mm 2 mps 647 mmHg 87%
    14:00 +2°C° 0.8 mm 2 mps 647 mmHg 88%
    15:00 +3°C° 0.8 mm 1 mps 647 mmHg 89%
    16:00 +3°C° 0.8 mm 1 mps 647 mmHg 89%
    17:00 +2°C° 0.2 mm 1 mps 647 mmHg 90%
    18:00 +1°C° 0.2 mm 1 mps 648 mmHg 90%
    19:00 +1°C° 0.2 mm 1 mps 648 mmHg 91%
    20:00 +1°C° 0.2 mm 1 mps 648 mmHg 91%
    21:00 +1°C° 0.2 mm 1 mps 649 mmHg 91%
    22:00 +1°C° 0.2 mm 1 mps 650 mmHg 91%
    23:00 0°C° 0.1 mm 1 mps 650 mmHg 91%

    Day after tomorrow, 26 January, Saturday

    Time Temperature Precipitation Wind Pressure Humidity
    00:00 0°C° 0.1 mm 1 mps 650 mmHg 91%
    01:00 0°C° 0.1 mm 1 mps 650 mmHg 91%
    02:00 -1°C° 0.1 mm 1 mps 650 mmHg 90%
    03:00 -1°C° 0.1 mm 1 mps 650 mmHg 90%
    04:00 -2°C° 0.1 mm 1 mps 650 mmHg 90%
    05:00 -4°C° 0 mm 2 mps 650 mmHg 90%
    06:00 -4°C° 0 mm 2 mps 650 mmHg 90%
    07:00 -4°C° 0 mm 2 mps 651 mmHg 90%
    08:00 -3°C° 0 mm 2 mps 652 mmHg 88%
    09:00 -2°C° 0 mm 2 mps 652 mmHg 86%
    10:00 +1°C° 0 mm 2 mps 653 mmHg 85%
    11:00 +1°C° 0 mm 2 mps 653 mmHg 84%
    12:00 +2°C° 0 mm 1 mps 654 mmHg 84%
    13:00 +3°C° 0 mm 1 mps 654 mmHg 84%
    14:00 +3°C° 0 mm 1 mps 654 mmHg 85%
    15:00 +2°C° 0 mm 1 mps 654 mmHg 86%
    16:00 +2°C° 0 mm 1 mps 654 mmHg 87%
    17:00 +1°C° 0 mm 1 mps 654 mmHg 87%
    18:00 -2°C° 0 mm 2 mps 654 mmHg 88%
    19:00 -3°C° 0 mm 2 mps 655 mmHg 88%
    20:00 -3°C° 0 mm 2 mps 655 mmHg 87%
    21:00 -3°C° 0 mm 2 mps 655 mmHg 87%
    22:00 -3°C° 0 mm 2 mps 656 mmHg 86%
    23:00 -4°C° 0 mm 2 mps 656 mmHg 86%

    27 January, Sunday

    Time Temperature Precipitation Wind Pressure Humidity
    00:00 -4°C° 0 mm 2 mps 656 mmHg 85%
    01:00 -4°C° 0 mm 2 mps 656 mmHg 85%
    02:00 -5°C° 0 mm 2 mps 656 mmHg 84%
    03:00 -5°C° 0 mm 2 mps 656 mmHg 84%
    04:00 -5°C° 0 mm 2 mps 656 mmHg 84%
    05:00 -5°C° 0 mm 2 mps 656 mmHg 83%
    06:00 -5°C° 0 mm 2 mps 656 mmHg 83%
    07:00 -5°C° 0 mm 2 mps 656 mmHg 82%
    08:00 -2°C° 0 mm 1 mps 657 mmHg 79%
    09:00 0°C° 0 mm 1 mps 658 mmHg 77%
    10:00 +2°C° 0 mm 1 mps 658 mmHg 74%
    11:00 +3°C° 0 mm 1 mps 659 mmHg 74%
    12:00 +4°C° 0 mm 1 mps 659 mmHg 75%
    13:00 +3°C° 0 mm 0 mps 659 mmHg 76%
    14:00 +4°C° 0 mm 1 mps 658 mmHg 77%
    15:00 +3°C° 0 mm 1 mps 658 mmHg 78%
    16:00 +3°C° 0 mm 1 mps 658 mmHg 80%
    17:00 +2°C° 0 mm 1 mps 658 mmHg 81%
    18:00 0°C° 0 mm 1 mps 658 mmHg 83%
    19:00 -1°C° 0 mm 1 mps 658 mmHg 85%
    20:00 -1°C° 0 mm 1 mps 658 mmHg 87%
    21:00 -1°C° 0 mm 1 mps 658 mmHg 88%
    22:00 -4°C° 0 mm 2 mps 658 mmHg 90%
    23:00 -4°C° 0 mm 2 mps 658 mmHg 91%

    28 January, Monday

    Time Temperature Precipitation Wind Pressure Humidity
    00:00 -4°C° 0 mm 2 mps 658 mmHg 92%
    01:00 -4°C° 0 mm 2 mps 658 mmHg 94%
    02:00 -4°C° 0 mm 2 mps 658 mmHg 94%
    03:00 -4°C° 0 mm 2 mps 658 mmHg 94%
    04:00 -4°C° 0 mm 2 mps 658 mmHg 95%
    05:00 -5°C° 0 mm 3 mps 658 mmHg 95%
    06:00 -5°C° 0 mm 3 mps 658 mmHg 95%
    07:00 -5°C° 0 mm 3 mps 658 mmHg 95%
    08:00 -2°C° 0 mm 3 mps 659 mmHg 92%
    09:00 -2°C° 0 mm 4 mps 659 mmHg 90%
    10:00 0°C° 0 mm 4 mps 660 mmHg 87%
    11:00 0°C° 0 mm 4 mps 660 mmHg 86%
    12:00 +1°C° 0 mm 4 mps 660 mmHg 84%
    13:00 +1°C° 0 mm 4 mps 659 mmHg 83%
    14:00 +1°C° 0.1 mm 4 mps 659 mmHg 85%
    15:00 +1°C° 0.1 mm 3 mps 659 mmHg 87%
    16:00 +1°C° 0.1 mm 3 mps 659 mmHg 89%
    17:00 +1°C° 0.8 mm 3 mps 659 mmHg 90%
    18:00 0°C° 0.8 mm 3 mps 659 mmHg 90%
    19:00 0°C° 0.8 mm 3 mps 659 mmHg 91%
    20:00 0°C° 1 mm 3 mps 659 mmHg 92%
    21:00 0°C° 1 mm 3 mps 659 mmHg 93%
    22:00 0°C° 1 mm 3 mps 659 mmHg 95%
    23:00 0°C° 1.2 mm 3 mps 659 mmHg 95%

    29 January, Tuesday

    Time Temperature Precipitation Wind Pressure Humidity
    00:00 +1°C° 1.2 mm 3 mps 659 mmHg 95%
    01:00 +1°C° 1.2 mm 3 mps 658 mmHg 95%
    02:00 +1°C° 1.3 mm 3 mps 658 mmHg 95%
    03:00 +1°C° 1.3 mm 3 mps 658 mmHg 95%
    04:00 +1°C° 1.3 mm 3 mps 658 mmHg 94%
    05:00 0°C° 2 mm 4 mps 658 mmHg 94%
    06:00 0°C° 2 mm 4 mps 658 mmHg 94%
    07:00 0°C° 2 mm 4 mps 658 mmHg 94%
    08:00 0°C° 1.6 mm 4 mps 658 mmHg 94%
    09:00 0°C° 1.6 mm 4 mps 659 mmHg 94%
    10:00 0°C° 1.6 mm 4 mps 659 mmHg 95%
    11:00 +1°C° 0.8 mm 4 mps 659 mmHg 94%
    12:00 +1°C° 0.8 mm 4 mps 658 mmHg 94%
    13:00 +1°C° 0.8 mm 4 mps 658 mmHg 93%
    14:00 +1°C° 0.3 mm 4 mps 658 mmHg 93%
    15:00 +2°C° 0.3 mm 3 mps 658 mmHg 93%
    16:00 +1°C° 0.3 mm 3 mps 658 mmHg 93%
    17:00 +1°C° 0.1 mm 3 mps 658 mmHg 92%
    18:00 +2°C° 0.1 mm 2 mps 657 mmHg 91%
    19:00 +1°C° 0.1 mm 2 mps 657 mmHg 90%
    20:00 +1°C° 0.1 mm 2 mps 657 mmHg 90%
    21:00 +1°C° 0.1 mm 2 mps 657 mmHg 89%
    22:00 +1°C° 0.1 mm 2 mps 657 mmHg 88%
    23:00 +1°C° 0.2 mm 2 mps 657 mmHg 89%
    Show more